Location: Unspecified
(0.0000°N, 0.0000°E)
Time: 06:15:40
(UTC+00:00)

N. Korean satellite - Pass Details

Date: 30 November 2022
Orbit: 421 x 454 km, 97.3° (Epoch: 29 November)

Event Time Altitude Azimuth Distance (km) Brightness Sun altitude
Rises 04:42:32 0° 18° (NNE) 2,429 10.1 -15.3°
Reaches altitude 10° 04:44:35 10° 23° (NNE) 1,557 9.1 -14.8°
Maximum altitude 04:47:51 53° 101° (E) 544 7.2 -14.1°
Drops below altitude 10° 04:51:05 10° 179° (S) 1,548 9.4 -13.3°
Sets 04:53:08 0° 184° (S) 2,413 10.4 -12.9°
